This demonstration page uses our WeatherBlox Daily Observations layout. Learn more.

Left ArrowRight Arrow

39.92423, -83.80882

Hourly Observations for August 24, 2020

Temp ( °F °C ) Dew Point ( °F °C ) Humidity (%) Winds ( mph kmh ) Pressure ( in mb ) Visibility ( mi km ) Precip ( " mm )
12:56 am 00:56 Clear 69 20.6 69 20.6 100 100 SSW 5 7 30.06 1018 10 16 N/A
1:56 am 01:56 Clear 68 20 68 20 100 100 SSW 3 6 30.06 1018 10 16 N/A
2:56 am 02:56 Clear 68 20 68 20 100 100 SW 6 9 30.06 1018 10 16 N/A
3:56 am 03:56 Clear 67 19.4 67 19.4 100 100 N N/A 30.06 1018 9 14 N/A
4:52 am 04:52 Clear with Mist and Fog 64 18 64 18 100 100 N N/A 30.06 1018 2 2 N/A
4:56 am 04:56 Clear with Mist and Fog 64 17.8 64 17.8 100 100 SW 3 6 30.06 1018 1 2 N/A
4:58 am 04:58 Clear with Mist and Fog 64 18 64 18 100 100 SW 3 6 30.06 1018 1 1 N/A
5:08 am 05:08 Clear with Mist and Fog 66 19 66 19 100 100 N N/A 30.06 1018 1 2 N/A
5:12 am 05:12 Clear with Mist and Fog 64 18 64 18 100 100 N N/A 30.06 1018 4 6 N/A
5:35 am 05:35 Clear with Mist and Fog 63 17 63 17 100 100 N N/A 30.06 1018 3 4 N/A
5:42 am 05:42 Clear with Mist and Fog 64 18 64 18 100 100 N N/A 30.06 1018 5 8 N/A
5:56 am 05:56 Clear with Mist and Fog 64 17.8 64 17.8 100 100 N N/A 30.06 1018 6 10 N/A
6:56 am 06:56 Clear with Mist and Fog 66 18.9 66 18.9 100 100 N N/A 30.08 1019 6 10 N/A
7:56 am 07:56 Sunny with Mist and Fog 68 20 68 20 100 100 SSW 5 7 30.09 1019 6 10 N/A
8:56 am 08:56 Sunny 72 22.2 72 22.2 100 100 SW 7 11 30.10 1019 9 14 N/A
9:56 am 09:56 Cloudy 75 23.9 72 22.2 90 90 SW 5 7 30.11 1020 10 16 N/A
10:56 am 10:56 Sunny 80 26.7 72 22.2 76 76 SW 7 11 30.11 1020 10 16 N/A
11:36 am 11:36 Cloudy with Nearby Thunderstorms 81 27 68 20 66 66 WSW 9 15 30.08 1018 10 16 N/A
11:51 am 11:51 Cloudy with Light Rain 77 25 70 21 79 79 N 8 13 30.09 1019 10 16 0.00 0.00
11:56 am 11:56 Cloudy with Light Rain 76 24.4 71 21.7 85 85 NE 6 9 30.11 1020 10 16 0.00 0.00
12:05 pm 12:05 Mostly Cloudy with Nearby Thunderstorms 79 26 72 22 79 79 N N/A 30.07 1018 10 16 0.00 0.00
12:20 pm 12:20 Partly Cloudy 81 27 72 22 74 74 VRB 3 6 30.07 1018 10 16 0.00 0.00
12:56 pm 12:56 Partly Cloudy 84 28.9 71 21.7 65 65 SSW 9 15 30.09 1019 10 16 0.00 0.00
1:56 pm 13:56 Mostly Cloudy 83 28.3 72 22.2 70 70 SW 6 9 30.07 1018 10 16 N/A
2:56 pm 14:56 Mostly Cloudy 84 28.9 72 22.2 67 67 SW 12 19 30.06 1018 10 16 N/A
3:56 pm 15:56 Mostly Cloudy 85 29.4 71 21.7 63 63 WSW 13 20 30.03 1017 10 16 N/A
4:56 pm 16:56 Mostly Sunny 84 28.9 72 22.2 67 67 SSW 6 9 30.02 1017 10 16 N/A
5:56 pm 17:56 Mostly Sunny 83 28.3 72 22.2 70 70 SW 9 15 30.02 1017 10 16 N/A
6:56 pm 18:56 Mostly Sunny 79 26.1 73 22.8 82 82 SSW 5 7 30.01 1016 10 16 N/A
7:56 pm 19:56 Sunny 81 27.2 71 21.7 72 72 WSW 8 13 30.02 1017 10 16 N/A
8:56 pm 20:56 Clear 75 23.9 70 21.1 84 84 SW 6 9 30.03 1017 10 16 N/A
9:56 pm 21:56 Clear 73 22.8 71 21.7 94 94 SW 6 9 30.05 1018 10 16 N/A
10:56 pm 22:56 Clear 72 22.2 72 22.2 100 100 SW 6 9 30.04 1017 10 16 N/A
11:56 pm 23:56 Clear 73 22.8 73 22.8 100 100 SW 6 9 30.05 1018 10 16 N/A

Powered by AerisWeather